1507874400.46,50930,11.06,73750.0,-4.89,-28.75,-24.21,0,*57
1507874401.73,50931,11.06,73750.8,-4.87,-28.59,-24.21,0,*56
1507874402.99,50932,11.06,73736.8,-4.89,-28.91,-24.31,0,*5E
1507874404.25,50933,11.06,73732.5,-4.89,-28.79,-24.31,0,*59
1507874405.48,50934,11.06,73748.8,-4.87,-28.91,-24.31,0,*56
1507874406.72,50935,11.06,73756.3,-4.87,-28.79,-24.31,0,*51
1507874407.98,50936,11.06,73762.0,-4.87,-28.91,-24.25,0,*51
1507874409.26,50937,11.0,73752.5,-4.89,-28.79,-24.11,0,*5F
1507874410.51,50938,11.06,73780.8,-4.89,-28.75,-24.05,0,*59
1507874411.75,50939,11.06,73766.0,-4.87,-28.53,-23.65,0,*53
1507874412.98,50940,11.06,73778.8,-4.87,-28.63,-23.79,0,*53
1507874414.21,50941,11.06,73786.0,-4.87,-28.37,-23.49,0,*50
1507874415.45,50942,11.0,73794.5,-4.89,-27.77,-23.09,0,*52
1507874416.69,50943,11.06,73804.3,-4.87,-27.61,-22.67,0,*53
1507874417.92,50944,11.06,73796.8,-4.85,-27.13,-22.27,0,*57
1507874419.15,50945,11.06,73794.5,-4.85,-26.87,-21.93,0,*56
1507874420.39,50946,11.06,73812.3,-4.83,-25.55,-20.59,0,*58
1507874421.62,50947,11.0,73792.5,-4.79,-25.35,-20.35,0,*50
1507874422.9,50948,11.06,73778.5,-4.73,-26.33,-21.33,0,*57
1507874424.15,50949,11.06,73778.8,-4.73,-27.23,-22.41,0,*50
1507874425.43,50950,11.06,73784.3,-4.73,-27.83,-23.03,0,*55
1507874426.66,50951,11.06,73798.0,-4.73,-27.71,-23.13,0,*58
1507874427.91,50952,11.06,73762.3,-4.73,-28.69,-23.69,0,*50
1507874429.17,50953,11.06,73766.3,-4.73,-28.05,-23.13,0,*56
1507874430.41,50954,11.06,73804.3,-4.73,-28.53,-23.43,0,*57
1507874431.66,50955,11.06,73780.5,-4.71,-28.21,-23.29,0,*5D
1507874432.91,50956,11.0,73782.8,-4.71,-27.99,-23.03,0,*5A
1507874434.13,50957,11.0,73788.5,-4.69,-27.71,-22.87,0,*59
1507874435.36,50958,11.06,73794.0,-4.71,-27.83,-22.93,0,*57
1507874436.61,50959,11.06,73776.0,-4.71,-27.39,-22.47,0,*5E
1507874437.89,50960,11.0,73768.5,-4.69,-25.97,-21.03,0,*58
1507874439.14,50961,11.06,73766.5,-4.69,-27.19,-22.27,0,*58
1507874440.39,50962,11.06,73782.0,-4.67,-27.35,-22.53,0,*58
1507874441.6,50963,11.06,73792.5,-4.65,-27.77,-22.93,0,*51
1507874442.89,50964,11.06,73784.0,-4.67,-28.25,-23.33,0,*57
1507874444.15,50965,11.06,73776.3,-4.65,-28.21,-23.33,0,*50
1507874445.4,50966,11.06,73782.8,-4.67,-28.31,-23.33,0,*50
1507874446.63,50967,11.06,73774.0,-4.65,-28.43,-23.43,0,*51
1507874447.88,50968,11.06,73762.3,-4.67,-28.69,-23.69,0,*5C
1507874449.11,50969,11.06,73766.8,-4.65,-28.97,-23.95,0,*5D
1507874450.37,50970,11.06,73782.8,-4.67,-28.69,-23.85,0,*57
1507874451.62,50971,11.0,73740.3,-4.65,-28.79,-23.95,0,*54
1507874452.89,50972,11.06,73738.5,-4.67,-29.17,-24.15,0,*53
1507874454.17,50973,11.06,73728.5,-4.67,-28.47,-23.49,0,*58
1507874455.42,50974,11.06,73726.3,-4.69,-28.37,-23.49,0,*56
1507874456.69,50975,11.06,73734.8,-4.69,-28.47,-23.65,0,*5E
1507874457.92,50976,11.0,73756.0,-4.69,-28.53,-23.79,0,*55
1507874459.14,50977,11.0,73772.5,-4.69,-28.37,-23.39,0,*52
1507874460.41,50978,11.06,73804.3,-4.69,-28.47,-23.53,0,*56
1507874461.67,50979,11.0,73788.5,-4.67,-28.09,-22.97,0,*5A
1507874462.91,50980,11.0,73790.3,-4.65,-28.91,-23.75,0,*52
1507874464.16,50981,11.06,73796.3,-4.67,-28.79,-23.79,0,*5B
1507874465.42,50982,11.06,73808.3,-4.67,-28.79,-23.79,0,*58
1507874466.69,50983,11.06,73810.3,-4.67,-28.47,-23.53,0,*5C
1507874467.95,50984,11.0,73774.8,-4.67,-29.29,-24.31,0,*51
1507874469.22,50985,11.06,73748.3,-4.67,-30.05,-24.83,0,*5F
1507874470.47,50986,11.06,73776.3,-4.69,-30.51,-25.19,0,*51
1507874471.72,50987,11.06,73758.8,-4.71,-30.05,-24.87,0,*5E
1507874472.94,50988,11.06,73762.3,-4.71,-29.79,-24.87,0,*52
1507874474.18,50989,11.06,73768.0,-4.71,-29.57,-24.71,0,*56
1507874475.47,50990,11.06,73772.8,-4.77,-29.51,-24.71,0,*5E
1507874476.7,50991,11.0,73756.0,-4.77,-29.23,-24.47,0,*5F
1507874477.94,50992,11.06,73740.8,-4.77,-27.77,-22.83,0,*5D
1507874479.23,50993,11.06,73736.3,-4.77,-27.23,-22.17,0,*50
1507874480.5,50994,11.06,73736.8,-4.73,-27.35,-21.97,0,*5F
1507874481.7,50995,11.0,73736.5,-4.71,-27.89,-22.63,0,*53
1507874482.96,50996,11.06,73756.8,-4.71,-29.01,-23.85,0,*57
1507874484.18,50997,11.06,73744.0,-4.71,-29.45,-24.11,0,*5C
1507874485.41,50998,11.06,73748.8,-4.71,-29.61,-24.21,0,*56
1507874486.66,50999,11.06,73754.0,-4.69,-29.73,-24.47,0,*5D
1507874487.86,51000,11.0,73750.8,-4.71,-29.95,-24.51,0,*53
1507874489.12,51001,11.0,73752.5,-4.73,-29.95,-24.41,0,*51
1507874490.37,51002,11.06,73760.8,-4.77,-30.45,-25.03,0,*54
1507874491.6,51003,11.06,73764.5,-4.77,-30.45,-24.93,0,*5D
1507874492.85,51004,11.06,73774.8,-4.77,-30.61,-25.23,0,*56
1507874494.09,51005,11.06,73762.0,-4.79,-30.95,-25.49,0,*5E
1507874495.31,51006,11.0,73728.5,-4.81,-30.33,-24.97,0,*54
1507874496.57,51007,11.0,73754.5,-4.81,-29.51,-24.35,0,*51
1507874497.8,51008,11.06,73754.0,-4.79,-29.45,-24.15,0,*5E
1507874499.09,51009,11.06,73780.8,-4.81,-29.35,-24.21,0,*58
1507874500.35,51010,11.06,73776.8,-4.81,-30.05,-24.77,0,*58
1507874501.62,51011,11.06,73768.3,-4.81,-29.73,-24.67,0,*51
1507874502.83,51012,11.0,73772.0,-4.83,-29.57,-24.35,0,*51
1507874504.1,51013,11.06,73778.8,-4.83,-29.39,-24.21,0,*5D
1507874505.33,51014,11.0,73788.5,-4.83,-29.61,-24.41,0,*51
1507874506.54,51015,11.0,73796.0,-4.83,-29.61,-24.51,0,*51
1507874507.83,51016,11.06,73790.3,-4.85,-29.51,-24.25,0,*54
1507874509.13,51017,11.0,73772.0,-4.85,-29.51,-24.21,0,*51
1507874510.41,51018,11.06,73802.0,-4.85,-29.51,-24.15,0,*59
1507874511.67,51019,11.06,73810.8,-4.85,-29.79,-24.41,0,*53
1507874512.9,51020,11.06,73812.5,-4.83,-29.73,-24.35,0,*56
1507874514.16,51021,11.0,73796.0,-4.85,-30.27,-24.71,0,*58
1507874515.41,51022,11.06,73788.3,-4.85,-30.05,-24.57,0,*5F
1507874516.67,51023,11.06,73788.0,-4.85,-29.73,-24.35,0,*53
1507874517.9,51024,11.0,73764.0,-4.89,-29.67,-24.31,0,*59
1507874519.14,51025,11.0,73744.0,-4.89,-30.67,-24.93,0,*58
1507874520.37,51026,11.06,73738.8,-4.89,-29.83,-24.61,0,*54
1507874521.64,51027,11.06,73774.5,-4.89,-29.61,-24.21,0,*5D
1507874522.9,51028,11.06,73778.0,-4.89,-29.07,-23.65,0,*55
1507874524.18,51029,11.06,73774.3,-4.89,-28.91,-23.33,0,*59
1507874525.44,51030,11.0,73772.0,-4.89,-29.13,-23.75,0,*58
1507874526.68,51031,11.0,73768.0,-4.89,-29.57,-23.89,0,*5A
1507874527.94,51032,11.06,73764.5,-4.89,-29.39,-23.89,0,*51
1507874529.19,51033,11.06,73764.8,-4.89,-29.45,-24.11,0,*5D
1507874530.43,51034,11.0,73756.8,-4.91,-29.67,-24.25,0,*54
1507874531.71,51035,11.06,73768.8,-4.93,-29.73,-24.15,0,*51
1507874532.96,51036,11.0,73740.0,-4.91,-29.73,-24.25,0,*53
1507874534.19,51037,11.0,73740.0,-4.91,-29.67,-24.15,0,*54
1507874535.46,51038,11.0,73732.8,-4.91,-29.51,-23.99,0,*5D
1507874536.72,51039,11.0,73728.8,-4.91,-29.35,-23.69,0,*51
1507874537.97,51040,11.06,73742.0,-4.91,-29.13,-23.65,0,*57
1507874539.21,51041,11.0,73734.5,-4.91,-28.85,-23.19,0,*53
1507874540.46,51042,11.0,73742.5,-4.91,-28.79,-23.29,0,*50
1507874541.69,51043,11.0,73736.5,-4.91,-28.79,-23.39,0,*50
1507874542.95,51044,11.06,73730.3,-4.93,-29.67,-24.11,0,*56
1507874544.21,51045,11.06,73716.5,-4.91,-30.17,-24.25,0,*5D
1507874545.49,51046,11.06,73718.3,-4.93,-29.73,-23.85,0,*5B
1507874546.78,51047,11.0,73708.5,-4.93,-29.51,-23.53,0,*51
1507874548.04,51048,11.06,73726.3,-4.97,-29.67,-23.53,0,*5F
1507874549.33,51049,11.0,73720.0,-4.97,-29.35,-23.33,0,*5F
1507874550.6,51050,11.0,73726.8,-4.97,-29.57,-23.23,0,*52
1507874551.86,51051,11.06,73746.3,-4.95,-29.35,-23.19,0,*5C
1507874553.13,51052,11.0,73728.5,-4.95,-29.51,-23.19,0,*5D
1507874554.37,51053,11.0,73720.3,-4.97,-29.67,-22.93,0,*58
1507874555.66,51054,11.06,73722.8,-4.97,-29.35,-21.97,0,*5F
1507874556.93,51055,11.0,73726.5,-4.97,-28.21,-20.43,0,*52
1507874558.17,51056,11.0,73730.0,-4.97,-26.03,-18.69,0,*5C
1507874559.4,51057,11.0,73740.0,-4.97,-24.05,-18.41,0,*53
1507874560.64,51058,11.0,73756.3,-4.97,-22.63,-17.83,0,*5B
1507874561.84,51059,11.0,73760.3,-4.95,-19.95,-15.99,0,*50
1507874563.05,51060,11.0,73760.8,-4.95,-18.21,-16.59,0,*5B
1507874564.29,51061,11.06,73778.3,-4.95,-18.35,-17.35,0,*54
1507874565.5,51062,11.06,73772.0,-4.95,-20.59,-18.11,0,*5F
1507874566.76,51063,11.0,73774.3,-4.97,-21.63,-18.35,0,*52
1507874568.05,51064,11.0,73764.0,-4.97,-24.21,-20.35,0,*5D
1507874569.34,51065,11.0,73756.0,-4.97,-26.33,-18.89,0,*51
1507874570.6,51066,11.0,73762.3,-5.01,-22.17,-17.07,0,*57
1507874571.86,51067,11.06,73782.0,-5.03,-22.47,-17.49,0,*5B
1507874573.06,51068,11.0,73770.3,-5.01,-22.83,-16.45,0,*53
1507874574.29,51069,11.06,73762.0,-5.03,-21.17,-14.19,0,*55
1507874575.54,51070,11.06,73774.0,-5.01,-17.55,-11.07,0,*56
1507874576.77,51071,11.0,73772.3,-5.01,-12.29,-9.15,0,*63
1507874577.96,51072,11.06,73760.3,-5.01,-9.71,-8.59,0,*5E
1507874579.15,51073,11.0,73762.5,-5.01,-9.67,-8.85,0,*59
1507874580.4,51074,11.0,73772.8,-5.03,-9.79,-9.11,0,*5F
1507874581.61,51075,11.0,73766.5,-5.01,-10.05,-9.11,0,*6F
1507874582.83,51076,11.06,73768.3,-5.03,-10.09,-9.67,0,*63
1507874584.03,51077,11.0,73764.8,-5.01,-11.23,-11.19,0,*59
1507874585.29,51078,11.0,73768.0,-5.03,-13.07,-12.75,0,*59
1507874586.54,51079,11.0,73754.5,-5.03,-16.31,-13.73,0,*5F
1507874587.76,51080,11.0,73766.0,-5.03,-16.97,-13.73,0,*55
1507874589.02,51081,11.0,73768.5,-5.03,-18.25,-16.09,0,*5B
1507874590.27,51082,11.0,73766.8,-5.03,-25.19,-17.97,0,*5F
1507874591.54,51083,11.0,73766.3,-5.05,-27.99,-18.01,0,*52
1507874592.75,51084,11.0,73758.8,-5.05,-23.43,-13.73,0,*58
1507874593.95,51085,11.06,73770.3,-5.01,-22.41,-14.65,0,*5E
1507874595.18,51086,11.0,73770.3,-5.01,-24.11,-15.67,0,*5D
1507874596.41,51087,11.0,73722.5,-4.95,-23.75,-14.55,0,*55
1507874597.64,51088,11.0,73698.8,-4.95,-20.43,-13.01,0,*5A
1507874598.85,51089,11.0,73718.8,-4.95,-18.21,-11.15,0,*53
1507874600.11,51090,11.0,73730.8,-4.95,-16.65,-10.75,0,*52
1507874601.34,51091,11.0,73740.3,-4.97,-14.37,-10.89,0,*57
1507874602.55,51092,11.0,73752.3,-4.95,-13.23,-10.89,0,*54
1507874603.77,51093,11.0,73760.3,-4.95,-13.43,-11.33,0,*53
1507874605.04,51094,11.06,73762.8,-4.95,-14.01,-11.29,0,*5E
1507874606.28,51095,11.06,73776.0,-4.95,-13.97,-10.57,0,*5F
1507874607.51,51096,11.06,73772.3,-4.95,-13.73,-10.63,0,*51
1507874608.76,51097,11.0,73778.5,-4.95,-12.53,-9.53,0,*68
1507874609.96,51098,11.0,73774.0,-4.95,-10.23,-9.19,0,*6C
1507874611.15,51099,11.06,73774.8,-4.95,-10.09,-9.05,0,*68
1507874612.36,51100,11.0,73766.0,-4.95,-10.35,-10.05,0,*5E
1507874613.61,51101,11.0,73758.3,-4.95,-11.81,-11.29,0,*5E
1507874614.84,51102,11.06,73770.0,-4.95,-11.85,-10.57,0,*51
1507874616.07,51103,11.0,73774.3,-4.95,-12.15,-10.31,0,*5A
1507874617.31,51104,11.0,73782.0,-4.95,-11.67,-10.49,0,*54
1507874618.54,51105,11.0,73778.3,-4.95,-13.11,-11.55,0,*5A
1507874619.79,51106,11.0,73794.5,-4.97,-14.61,-11.81,0,*52
1507874620.99,51107,11.0,73776.3,-4.95,-18.11,-14.37,0,*52
1507874622.23,51108,11.0,73776.5,-4.97,-22.41,-16.41,0,*50
1507874623.46,51109,11.0,73776.0,-4.95,-23.09,-16.31,0,*59
1507874624.72,51110,11.0,73770.3,-4.95,-23.19,-16.17,0,*54
1507874625.97,51111,11.0,73778.8,-4.97,-25.03,-16.93,0,*56
1507874627.21,51112,11.0,73768.0,-4.97,-25.19,-16.75,0,*56
1507874628.46,51113,11.0,73780.3,-4.97,-23.59,-16.51,0,*53
1507874629.68,51114,11.0,73788.8,-5.01,-24.77,-17.35,0,*52
1507874630.91,51115,11.06,73784.8,-5.01,-25.03,-16.79,0,*58
1507874632.15,51116,11.0,73778.0,-5.01,-24.71,-16.55,0,*51
1507874633.38,51117,11.06,73766.3,-5.03,-26.03,-16.97,0,*5B
1507874634.64,51118,11.06,73768.3,-5.03,-25.55,-16.55,0,*5A
1507874635.93,51119,11.06,73776.0,-4.97,-23.69,-15.43,0,*5A
1507874637.19,51120,11.0,73784.5,-5.03,-22.53,-15.43,0,*54
1507874638.47,51121,11.06,73752.8,-5.03,-21.33,-14.55,0,*56
1507874639.73,51122,11.0,73762.3,-5.03,-21.53,-14.61,0,*54
1507874640.96,51123,11.0,73762.0,-5.03,-22.11,-14.61,0,*50
1507874642.21,51124,11.0,73754.0,-5.03,-21.09,-13.29,0,*56
1507874643.47,51125,11.0,73750.0,-5.03,-18.01,-13.19,0,*56
1507874644.7,51126,11.0,73750.8,-5.05,-17.63,-13.23,0,*51
1507874645.93,51127,11.0,73744.8,-5.05,-17.79,-13.51,0,*5E
1507874647.16,51128,11.0,73748.5,-5.03,-19.37,-13.93,0,*5D
1507874648.39,51129,11.0,73754.3,-5.03,-20.43,-14.33,0,*58
1507874649.64,51130,11.0,73758.0,-5.03,-20.93,-14.75,0,*5F
1507874650.9,51131,11.0,73736.5,-5.01,-21.03,-15.01,0,*56
1507874652.15,51132,11.0,73740.8,-5.03,-22.63,-15.43,0,*54
1507874653.39,51133,11.0,73762.3,-5.03,-23.89,-15.75,0,*55
1507874654.67,51134,11.0,73746.8,-5.03,-24.11,-15.81,0,*5F
1507874655.95,51135,11.0,73724.0,-5.03,-23.29,-15.43,0,*5C
1507874657.21,51136,11.0,73724.0,-5.01,-22.77,-15.01,0,*51
1507874658.45,51137,11.0,73732.8,-5.01,-22.53,-14.47,0,*55
1507874659.66,51138,11.0,73712.3,-5.01,-22.93,-14.65,0,*56
1507874660.86,51139,11.0,73700.3,-5.01,-23.39,-14.89,0,*54
1507874662.09,51140,11.0,73736.5,-4.97,-22.41,-13.73,0,*58
1507874663.33,51141,11.0,73746.5,-4.97,-21.63,-12.89,0,*5E
1507874664.56,51142,11.0,73730.0,-4.91,-21.23,-12.47,0,*5D
1507874665.79,51143,11.0,73742.8,-4.91,-22.67,-13.61,0,*5A
1507874667.05,51144,11.0,73752.3,-4.89,-23.59,-14.05,0,*5D
1507874668.29,51145,11.0,73744.8,-4.89,-23.79,-14.29,0,*50
1507874669.51,51146,11.0,73748.5,-4.87,-23.29,-13.65,0,*57
1507874670.77,51147,11.0,73732.8,-4.87,-22.47,-13.01,0,*5D
1507874672.0,51148,11.0,73736.5,-4.83,-22.87,-13.29,0,*50
1507874673.23,51149,11.0,73746.3,-4.81,-23.13,-13.51,0,*50
1507874674.47,51150,11.0,73754.5,-4.79,-23.65,-13.83,0,*51
1507874675.69,51151,11.0,73750.5,-4.79,-23.69,-13.93,0,*5D
1507874676.98,51152,11.0,73768.0,-4.77,-24.25,-14.51,0,*56
1507874678.24,51153,11.0,73760.3,-4.81,-24.61,-14.79,0,*54
1507874679.5,51154,11.0,73770.0,-4.79,-24.21,-14.55,0,*5E
1507874680.79,51155,11.0,73762.8,-4.77,-24.15,-14.51,0,*52
1507874682.07,51156,11.0,73766.8,-4.77,-24.11,-14.51,0,*55
1507874683.31,51157,11.0,73784.8,-4.77,-24.31,-14.61,0,*55
1507874684.56,51158,11.0,73798.0,-4.73,-24.05,-14.43,0,*59
1507874685.85,51159,11.0,73796.3,-4.77,-24.11,-14.51,0,*5A
1507874687.08,51160,11.0,73788.5,-4.73,-24.05,-14.33,0,*55
1507874688.36,51161,11.0,73788.3,-4.73,-23.53,-13.83,0,*5C
1507874689.62,51162,11.0,73786.0,-4.73,-23.85,-14.15,0,*5C
1507874690.87,51163,11.0,73796.8,-4.73,-23.99,-14.33,0,*54
1507874692.1,51164,11.0,73796.0,-4.71,-24.05,-14.55,0,*53
1507874693.38,51165,11.0,73798.0,-4.69,-23.69,-13.97,0,*5F
1507874694.6,51166,11.0,73792.8,-4.71,-22.41,-13.37,0,*54
1507874695.87,51167,11.0,73788.8,-4.69,-19.85,-11.67,0,*5B
1507874697.1,51168,11.0,73796.0,-4.69,-16.89,-11.11,0,*56
1507874698.35,51169,11.0,73790.3,-4.69,-15.29,-11.97,0,*50
1507874699.58,51170,11.0,73784.0,-4.67,-18.83,-13.69,0,*58
1507874700.83,51171,11.0,73772.8,-4.69,-20.69,-14.05,0,*55
1507874702.02,51172,11.0,73788.8,-4.71,-23.39,-14.69,0,*53
1507874703.28,51173,11.06,73788.0,-4.67,-23.99,-14.65,0,*53
1507874704.56,51174,11.0,73784.0,-4.69,-23.99,-14.97,0,*57
1507874705.79,51175,11.0,73752.8,-4.71,-25.13,-15.57,0,*56
1507874707.01,51176,11.0,73750.8,-4.69,-25.35,-15.67,0,*5B
1507874708.21,51177,11.0,73754.5,-4.71,-25.39,-15.63,0,*5B
1507874709.43,51178,11.0,73758.0,-4.71,-25.35,-15.43,0,*5A
1507874710.66,51179,11.0,73762.5,-4.71,-25.35,-15.43,0,*5B
1507874711.92,51180,11.0,73762.8,-4.73,-25.55,-15.63,0,*5B
1507874713.2,51181,11.0,73756.5,-4.73,-25.71,-15.85,0,*54
1507874714.47,51182,11.0,73756.0,-4.77,-26.07,-16.17,0,*59
1507874715.76,51183,11.0,73778.0,-4.77,-25.55,-15.81,0,*50
1507874717.03,51184,11.0,73732.8,-4.77,-24.71,-15.53,0,*5F
1507874718.29,51185,11.0,73726.5,-4.73,-25.65,-16.13,0,*59
1507874719.51,51186,11.0,73744.8,-4.79,-26.23,-16.31,0,*51
1507874720.75,51187,11.0,73740.5,-4.79,-26.07,-16.09,0,*5D
1507874721.98,51188,11.0,73750.0,-4.81,-25.65,-15.71,0,*5E
1507874723.23,51189,11.0,73746.8,-4.81,-25.35,-15.43,0,*5B
1507874724.49,51190,11.0,73752.8,-4.81,-25.13,-15.35,0,*56
1507874725.77,51191,11.0,73754.0,-4.81,-25.29,-15.35,0,*5E
1507874727.0,51192,11.0,73756.5,-4.81,-25.35,-15.53,0,*50
1507874728.23,51193,11.0,73760.0,-4.81,-25.61,-15.67,0,*57
1507874729.49,51194,11.0,73764.8,-4.81,-25.61,-15.57,0,*53
1507874730.74,51195,11.0,73756.5,-4.81,-24.97,-15.57,0,*5A
1507874732.0,51196,11.0,73754.5,-4.79,-24.83,-15.21,0,*5A
1507874733.25,51197,11.0,73756.8,-4.81,-25.09,-15.35,0,*5A
1507874734.5,51198,11.0,73774.0,-4.81,-25.23,-15.21,0,*58
1507874735.71,51199,11.0,73772.5,-4.79,-24.97,-15.25,0,*54
1507874736.96,51200,11.0,73772.8,-4.81,-24.97,-15.35,0,*51
1507874738.22,51201,11.0,73780.8,-4.81,-25.13,-15.35,0,*5D
1507874739.46,51202,11.0,73768.0,-4.81,-24.97,-15.25,0,*52
1507874740.7,51203,11.0,73772.5,-4.81,-24.77,-15.25,0,*5D
1507874741.93,51204,11.0,73736.0,-4.79,-24.77,-15.21,0,*59
1507874743.14,51205,11.0,73750.8,-4.79,-24.97,-15.53,0,*53
1507874744.34,51206,11.0,73738.3,-4.79,-24.97,-15.53,0,*50
1507874745.59,51207,11.0,73752.3,-4.79,-25.45,-15.57,0,*5B
1507874746.82,51208,11.0,73732.5,-4.79,-25.45,-15.53,0,*50
1507874748.03,51209,11.0,73762.0,-4.79,-24.97,-15.25,0,*5E
1507874749.29,51210,11.0,73740.8,-4.81,-24.61,-14.97,0,*50
1507874750.54,51211,11.0,73758.5,-4.79,-24.67,-14.79,0,*50
1507874751.78,51212,11.0,73766.0,-4.79,-24.31,-14.43,0,*59
1507874753.01,51213,11.0,73752.5,-4.79,-24.11,-14.23,0,*5C
1507874754.25,51214,11.0,73744.3,-4.79,-23.65,-13.79,0,*57
1507874755.48,51215,11.0,73740.5,-4.79,-23.99,-14.23,0,*5D
1507874756.74,51216,11.0,73754.0,-4.73,-23.99,-14.29,0,*5E
1507874757.97,51217,11.0,73752.3,-4.73,-23.89,-14.29,0,*5E
1507874759.23,51218,11.0,73760.5,-4.73,-23.89,-14.47,0,*59
1507874760.49,51219,11.06,73788.8,-4.73,-24.05,-14.47,0,*5B
1507874761.73,51220,11.0,73804.8,-4.73,-23.75,-14.15,0,*56
1507874762.95,51221,11.0,73808.5,-4.69,-22.83,-13.43,0,*50
1507874764.17,51222,11.0,73792.3,-4.69,-23.09,-13.65,0,*54
1507874765.46,51223,11.0,73776.0,-4.67,-23.49,-13.97,0,*52
1507874766.72,51224,11.0,73806.5,-4.67,-23.65,-14.23,0,*53
1507874767.99,51225,11.0,73798.5,-4.67,-23.85,-14.43,0,*5A
1507874769.27,51226,11.0,73806.0,-4.67,-24.15,-14.51,0,*54
1507874770.54,51227,11.0,73802.8,-4.67,-24.47,-14.79,0,*58
1507874771.8,51228,11.0,73808.5,-4.65,-24.41,-14.75,0,*5F
1507874773.06,51229,11.0,73802.5,-4.67,-23.53,-14.19,0,*52
1507874774.28,51230,11.0,73798.8,-4.65,-23.13,-13.79,0,*5D
1507874775.49,51231,11.0,73796.0,-4.65,-23.43,-14.15,0,*54
1507874776.75,51232,11.0,73796.5,-4.63,-23.43,-14.01,0,*54
1507874778.0,51233,11.0,73800.8,-4.63,-24.15,-14.61,0,*57
1507874779.2,51234,11.0,73764.3,-4.61,-24.35,-14.69,0,*58
1507874780.46,51235,11.0,73738.5,-4.61,-24.87,-15.21,0,*5D
1507874781.67,51236,11.0,73738.0,-4.61,-25.09,-15.49,0,*57
1507874782.94,51237,11.0,73754.0,-4.63,-25.03,-15.35,0,*55
1507874784.21,51238,11.0,73758.8,-4.65,-24.71,-15.01,0,*5F
1507874785.46,51239,11.0,73754.8,-4.63,-24.57,-14.79,0,*52
1507874786.7,51240,11.0,73754.3,-4.65,-24.31,-14.75,0,*56
1507874787.91,51241,11.0,73754.5,-4.65,-24.31,-14.65,0,*56
1507874789.14,51242,11.0,73770.5,-4.63,-24.61,-14.89,0,*54
1507874790.41,51243,11.0,73760.8,-4.63,-24.71,-15.15,0,*50
1507874791.64,51244,11.0,73774.5,-4.65,-24.87,-15.15,0,*58
1507874792.88,51245,11.0,73732.5,-4.65,-25.03,-15.25,0,*57
1507874794.16,51246,11.0,73730.0,-4.63,-25.03,-15.39,0,*5F
1507874795.4,51247,11.0,73752.5,-4.65,-24.47,-14.93,0,*58
1507874796.61,51248,11.0,73750.5,-4.65,-24.57,-14.89,0,*5D
1507874797.85,51249,11.0,73754.8,-4.65,-24.47,-14.79,0,*52
1507874799.11,51250,11.0,73742.8,-4.65,-24.25,-14.51,0,*54
1507874800.37,51251,11.0,73768.8,-4.65,-23.53,-13.97,0,*5E
1507874801.61,51252,11.0,73754.0,-4.65,-22.97,-13.61,0,*5D
1507874802.81,51253,11.0,73748.5,-4.65,-22.97,-13.47,0,*58
1507874804.03,51254,11.0,73740.3,-4.61,-22.41,-13.01,0,*52
1507874805.26,51255,11.0,73746.3,-4.61,-21.67,-12.29,0,*5F
1507874806.47,51256,11.0,73738.0,-4.57,-21.63,-12.21,0,*55
1507874807.72,51257,11.0,73742.3,-4.55,-21.57,-12.21,0,*51
1507874809.0,51258,11.0,73744.0,-4.51,-21.87,-12.53,0,*52
1507874810.25,51259,11.0,73736.0,-4.51,-22.83,-13.37,0,*57
1507874811.48,51260,11.0,73748.3,-4.49,-23.85,-14.33,0,*50
1507874812.73,51261,11.0,73726.8,-4.47,-24.11,-14.69,0,*5A
1507874813.96,51262,11.0,73710.8,-4.47,-24.51,-15.15,0,*57
1507874815.2,51263,11.0,73714.5,-4.49,-25.13,-15.39,0,*51
1507874816.43,51264,11.0,73724.8,-4.49,-24.77,-15.35,0,*59
1507874817.63,51265,11.0,73724.8,-4.49,-24.97,-15.25,0,*57
1507874818.89,51266,11.0,73738.8,-4.51,-24.41,-15.11,0,*51
1507874820.16,51267,11.0,73750.8,-4.51,-24.71,-15.11,0,*53
1507874821.42,51268,11.0,73718.5,-4.51,-24.71,-15.11,0,*5C
1507874822.69,51269,11.0,73736.3,-4.51,-24.71,-15.11,0,*5D
1507874823.94,51270,11.0,73738.8,-4.51,-24.57,-14.97,0,*5E
1507874825.17,51271,11.0,73742.8,-4.55,-24.35,-14.69,0,*5E
1507874826.41,51272,11.0,73750.3,-4.55,-23.65,-14.11,0,*50
1507874827.69,51273,11.0,73742.0,-4.55,-23.49,-13.83,0,*53
1507874828.91,51274,11.0,73756.0,-4.51,-23.79,-14.19,0,*57
1507874830.17,51275,11.0,73730.3,-4.51,-23.95,-14.23,0,*5D
1507874831.42,51276,11.0,73718.3,-4.51,-23.95,-14.37,0,*5B
1507874832.71,51277,11.0,73716.8,-4.51,-24.11,-14.47,0,*56
1507874833.99,51278,11.0,73716.3,-4.51,-24.25,-14.51,0,*59
1507874835.28,51279,11.0,73750.8,-4.51,-24.15,-14.47,0,*5C
1507874836.55,51280,11.0,73762.0,-4.51,-23.99,-14.43,0,*5D
1507874837.78,51281,11.0,73786.8,-4.51,-23.75,-14.37,0,*5D
1507874839.01,51282,11.0,73786.5,-4.51,-23.43,-14.11,0,*5F
1507874840.24,51283,11.0,73784.0,-4.51,-23.43,-14.23,0,*5F
1507874841.49,51284,11.0,73790.8,-4.49,-23.33,-13.61,0,*57
1507874842.75,51285,11.0,73778.5,-4.47,-22.73,-13.19,0,*52
1507874843.97,51286,11.0,73770.3,-4.49,-23.03,-13.47,0,*52
1507874845.22,51287,11.0,73766.8,-4.47,-22.97,-13.33,0,*52
1507874846.44,51288,11.0,73766.3,-4.45,-22.63,-13.01,0,*55
1507874847.68,51289,11.0,73776.8,-4.45,-21.87,-12.43,0,*5A
1507874848.95,51290,11.0,73790.5,-4.43,-22.21,-12.65,0,*5F
1507874850.23,51291,11.0,73784.0,-4.43,-22.21,-12.83,0,*56
1507874851.46,51292,11.0,73778.5,-4.43,-22.37,-12.93,0,*53
1507874852.69,51293,11.0,73778.3,-4.39,-22.37,-12.93,0,*5F
1507874853.93,51294,11.0,73776.0,-4.39,-22.07,-12.65,0,*52
1507874855.17,51295,11.0,73776.0,-4.39,-21.73,-12.15,0,*54
1507874856.43,51296,11.0,73776.0,-4.37,-21.87,-12.57,0,*54
1507874857.73,51297,11.0,73778.0,-4.35,-21.87,-12.71,0,*53
1507874858.96,51298,11.0,73784.8,-4.33,-22.07,-12.83,0,*5C
1507874860.2,51299,11.0,73782.8,-4.33,-22.57,-13.29,0,*59
1507874861.42,51300,11.0,73758.0,-4.29,-22.37,-12.97,0,*51
1507874862.66,51301,11.0,73760.8,-4.29,-22.73,-13.23,0,*5E
1507874863.88,51302,11.0,73774.3,-4.33,-22.93,-13.55,0,*59
1507874865.09,51303,11.0,73796.5,-4.33,-23.09,-13.65,0,*59
1507874866.35,51304,11.0,73782.3,-4.27,-22.97,-13.79,0,*50
1507874867.59,51305,11.0,73780.0,-4.29,-23.03,-13.65,0,*5E
1507874868.82,51306,11.0,73788.3,-4.33,-23.03,-13.69,0,*5A
1507874870.06,51307,11.0,73804.3,-4.33,-23.09,-13.79,0,*50
1507874871.29,51308,11.0,73782.5,-4.33,-23.03,-13.69,0,*54
1507874872.53,51309,11.0,73768.8,-4.33,-23.19,-13.65,0,*52
1507874873.77,51310,11.0,73766.3,-4.33,-23.03,-13.55,0,*52
1507874874.99,51311,11.0,73766.3,-4.29,-22.93,-13.43,0,*57
1507874876.23,51312,11.0,73762.8,-4.29,-22.27,-12.79,0,*53
1507874877.48,51313,11.0,73764.3,-4.29,-21.83,-12.29,0,*5A
1507874878.71,51314,11.06,73766.8,-4.27,-21.63,-12.47,0,*55
1507874879.98,51315,11.0,73756.8,-4.27,-21.77,-12.53,0,*54
1507874881.23,51316,11.0,73756.3,-4.25,-21.53,-12.21,0,*56
1507874882.5,51317,11.0,73762.3,-4.25,-21.23,-11.89,0,*51
1507874883.77,51318,11.0,73760.0,-4.21,-21.23,-11.97,0,*55
1507874885.01,51319,11.0,73756.5,-4.21,-21.09,-11.97,0,*5C
1507874886.27,51320,11.0,73764.8,-4.19,-21.43,-12.11,0,*5E
1507874887.53,51321,11.0,73764.0,-4.17,-20.99,-11.51,0,*50
1507874888.8,51322,11.0,73762.3,-4.15,-21.39,-12.35,0,*5B
1507874890.02,51323,11.0,73786.0,-4.13,-22.11,-12.89,0,*52
1507874891.27,51324,11.0,73762.0,-4.13,-22.47,-12.93,0,*5D
1507874892.53,51325,11.0,73780.5,-4.15,-22.37,-12.65,0,*54
1507874893.8,51326,11.0,73726.8,-4.15,-21.87,-12.25,0,*5B
1507874895.06,51327,11.0,73748.3,-4.13,-21.97,-12.57,0,*58
1507874896.29,51328,11.0,73806.8,-4.13,-22.53,-12.89,0,*5F
1507874897.58,51329,11.06,73764.8,-4.15,-22.31,-12.79,0,*53
1507874898.83,51330,11.0,73770.0,-4.13,-22.17,-12.47,0,*54
1507874900.11,51331,11.0,73768.0,-4.11,-21.83,-12.15,0,*5E
1507874901.4,51332,11.0,73784.5,-4.11,-21.67,-12.07,0,*54
1507874902.61,51333,11.0,73766.3,-4.09,-20.93,-11.45,0,*53
1507874903.87,51334,11.0,73770.3,-4.03,-21.27,-11.77,0,*51